Location: Chequamegon National Forest
(46.1070°N, 90.8420°W)
Time: 19:37:33
(UTC-06:00)

Amateur Radio Satellites - All Passes

Search period start: 06 March 2015 19:07
Search period end: 07 March 2015 19:07
Location: Chequamegon National Forest, 46.1070°N, 90.8420°W

Satellite Date Start Highest point End Downlink Frequencies (MHz)
Time Altitude Azimuth
SEEDS 06 Mar 19:18:04 19:21:33 26° 67° (ENE) 19:25:06 437.485
CANX-2 06 Mar 19:27:58 19:31:56 42° 71° (ENE) 19:35:56 2200.000
O/OREOS (USA 219) 06 Mar 19:28:30 19:31:26 16° 259° (W) 19:34:10 437.305
PCSat 06 Mar 19:33:11 19:38:24 52° 116° (ESE) 19:43:41 145.827
CUBEBUG 2 06 Mar 19:41:24 19:43:43 15° 63° (ENE) 19:46:09 437.445
CUTE 1.7 + AOD 2 06 Mar 19:45:41 19:49:49 59° 74° (ENE) 19:53:59 437.475
CINEMA 3 06 Mar 19:48:59 19:52:59 29° 68° (ENE) 19:56:52 145.822/145.860
CUBESAT XI-V 06 Mar 19:56:39 20:00:25 23° 295° (WNW) 20:04:03 437.345
FUNcube-1 06 Mar 19:58:30 20:00:45 14° 63° (ENE) 20:03:07 145.935
GOMX 1 06 Mar 19:59:28 20:04:46 89° 272° (W) 20:09:45 467.674
UKube-1 06 Mar 20:00:07 20:02:31 15° 61° (ENE) 20:05:05 .
ZACube-1 06 Mar 20:01:11 20:03:39 16° 63° (ENE) 20:06:15 437.345
VERMONT LUNAR 06 Mar 20:02:14 20:04:39 17° 201° (SSW) 20:07:02 437.305
STRAND 1 06 Mar 20:11:59 20:16:34 32° 294° (WNW) 20:21:03 437.568
AAUSAT CUBESAT 2 06 Mar 20:12:34 20:16:42 71° 75° (ENE) 20:20:51 437.432
DOVE 4 06 Mar 20:13:09 20:18:12 88° 71° (ENE) 20:22:59 437.250
BRITE-PL 06 Mar 20:17:44 20:23:05 46° 262° (W) 20:28:08 437.365/2234.400
HO-68 06 Mar 20:18:34 20:25:39 64° 257° (WSW) 20:32:47 435.675
COMPASS 1 06 Mar 20:18:46 20:22:56 86° 257° (WSW) 20:27:07 437.405
PRISM 06 Mar 20:25:09 20:26:44 12° 301° (WNW) 20:28:07 437.425
UWE-3 06 Mar 20:28:58 20:32:53 34° 69° (ENE) 20:36:45 435.000/436.395/437.385
RS-15 06 Mar 20:36:25 20:41:49 16° 98° (E) 20:48:02 29.354- 29.394
Oscar 11 06 Mar 20:38:07 20:42:22 67° 74° (ENE) 20:46:40 145.826/435.025
PHONESAT 2.4 06 Mar 20:38:18 20:41:02 20° 200° (SSW) 20:43:44 2401.200-2431.200
GONETS M04 06 Mar 20:51:00 20:59:08 49° 89° (E) 21:07:23
DELFI C3 06 Mar 20:53:19 20:57:20 76° 76° (ENE) 21:01:24 145.870
SEEDS 06 Mar 20:53:34 20:57:18 30° 265° (W) 21:01:02 437.485
HUMSAT D 06 Mar 21:03:02 21:06:45 33° 69° (ENE) 21:10:30 437.325/437.525
CANX-2 06 Mar 21:05:01 21:08:07 19° 269° (W) 21:11:07 2200.000
DX 1 06 Mar 21:10:08 21:14:31 74° 73° (ENE) 21:18:56 434.975-435.025
CUBEBUG 2 06 Mar 21:15:35 21:20:01 67° 258° (WSW) 21:24:19 437.445
PCSat 06 Mar 21:17:17 21:22:06 31° 316° (NW) 21:26:55 145.827
CUBEBUG 1 06 Mar 21:23:21 21:26:35 21° 64° (ENE) 21:29:56 437.445
CUTE 1.7 + AOD 2 06 Mar 21:23:56 21:26:13 14° 272° (W) 21:28:20 437.475
CINEMA 3 06 Mar 21:25:56 21:30:09 32° 264° (W) 21:34:11 145.822/145.860
FUNcube-1 06 Mar 21:32:23 21:36:41 66° 259° (WSW) 21:40:54 145.935
UKube-1 06 Mar 21:33:54 21:38:14 67° 258° (WSW) 21:42:35 .
AISAT 06 Mar 21:34:25 21:38:49 56° 72° (ENE) 21:43:15 437.250
ZACube-1 06 Mar 21:35:23 21:39:40 60° 259° (W) 21:43:52 437.345
GOMX 1 06 Mar 21:41:21 21:43:35 12° 274° (W) 21:45:30 467.674
VELOX 1 06 Mar 21:41:40 21:46:06 64° 73° (ENE) 21:50:34 145.980
50 SAT 06 Mar 21:46:46 21:50:43 69° 74° (ENE) 21:54:39 437.505
QB50P2 06 Mar 21:50:44 21:51:12 10° 86° (E) 21:51:57 145.880/145.840
AAUSAT CUBESAT 2 06 Mar 21:51:32 21:52:56 11° 274° (W) 21:54:07 437.432
DOVE 4 06 Mar 21:54:40 21:56:38 12° 274° (W) 21:58:16 437.250
DUCHIFAT 1 06 Mar 22:00:25 22:02:18 13° 88° (E) 22:04:22 145.980
UWE-3 06 Mar 22:05:52 22:09:31 25° 266° (W) 22:13:02 435.000/436.395/437.385
HO-68 06 Mar 22:12:42 22:15:02 11° 279° (W) 22:16:47 435.675
ESTCUBE 1 06 Mar 22:14:32 22:19:03 69° 74° (ENE) 22:23:36 437.505/2401.250
Oscar 11 06 Mar 22:17:00 22:19:06 13° 273° (W) 22:21:00 145.826/435.025
UNISAT 6 06 Mar 22:18:14 22:22:14 36° 97° (E) 22:26:19 437.425
POPSAT HIP 1 06 Mar 22:23:09 22:26:29 23° 93° (E) 22:29:53 437.405
POLYITAN 1 06 Mar 22:24:56 22:28:23 24° 93° (E) 22:31:52 437.675
DANDE 06 Mar 22:37:50 22:42:24 24° 95° (E) 22:46:13 436.750
HUMSAT D 06 Mar 22:39:12 22:42:38 24° 267° (W) 22:45:59 437.325/437.525
CUSAT 1 06 Mar 22:40:19 22:44:54 28° 96° (E) 22:48:36 437.405
TIGRISAT 06 Mar 22:40:53 22:45:09 62° 101° (E) 22:49:28 435.000
RS-15 06 Mar 22:41:31 22:52:14 69° 119° (ESE) 23:03:13 29.354- 29.394
NANOSAT C BR1 06 Mar 22:44:04 22:48:00 37° 97° (E) 22:51:55 145.865
GONETS M04 06 Mar 22:48:01 22:56:11 42° 291° (WNW) 23:04:18
BEESAT 3 06 Mar 22:48:05 22:50:19 14° 31° (NNE) 22:52:38 437.485
DX 1 06 Mar 22:49:28 22:51:22 12° 273° (W) 22:53:04 434.975-435.025
ANTELSAT 06 Mar 22:57:03 23:01:24 87° 284° (WNW) 23:05:47 437.575/2403.000
CUBEBUG 1 06 Mar 22:58:22 23:02:41 47° 261° (W) 23:07:00 437.445
TISAT 1 06 Mar 22:59:33 23:03:36 44° 71° (ENE) 23:07:42 437.305
BUGSAT 1 06 Mar 23:04:10 23:08:10 45° 99° (E) 23:12:07 437.445
PCSat 06 Mar 23:06:30 23:07:24 10° 341° (NNW) 23:08:11 145.827
SWISSCUBE 06 Mar 23:11:26 23:13:53 14° 59° (ENE) 23:16:31 437.505
SPROUT 06 Mar 23:12:04 23:16:22 66° 74° (ENE) 23:20:41 437.525
AISAT 06 Mar 23:12:51 23:15:50 17° 270° (W) 23:18:39 437.250
QB50P1 06 Mar 23:18:00 23:22:16 88° 102° (ESE) 23:26:28 145.935-145.965
BEESAT 2 06 Mar 23:18:26 23:21:30 20° 36° (NE) 23:24:36 435.950
BEESAT 06 Mar 23:18:53 23:21:35 16° 60° (ENE) 23:24:27 436.000
VELOX 1 06 Mar 23:20:37 23:23:11 14° 272° (W) 23:25:35 145.980
QB50P2 06 Mar 23:23:32 23:27:48 80° 285° (WNW) 23:32:00 145.880/145.840
50 SAT 06 Mar 23:25:13 23:26:15 11° 273° (W) 23:27:04 437.505
DUCHIFAT 1 06 Mar 23:34:29 23:38:40 63° 287° (WNW) 23:42:49 145.980
AIST 2 06 Mar 23:42:03 23:44:46 16° 32° (NNE) 23:47:31 435.215
ITUPSAT 1 06 Mar 23:47:47 23:51:43 27° 65° (ENE) 23:55:47 437.325
ESTCUBE 1 06 Mar 23:54:04 23:56:30 14° 273° (W) 23:58:44 437.505/2401.250
UNISAT 6 06 Mar 23:55:24 23:58:55 24° 294° (WNW) 00:02:22 437.425
POPSAT HIP 1 06 Mar 23:58:38 00:02:31 35° 291° (WNW) 00:06:20 437.405
POLYITAN 1 07 Mar 00:00:34 00:04:25 33° 291° (WNW) 00:08:11 437.675
SO-50 07 Mar 00:00:51 00:04:49 30° 116° (ESE) 00:08:59 436.795
TIGRISAT 07 Mar 00:18:55 00:21:31 15° 298° (WNW) 00:24:00 435.000
DANDE 07 Mar 00:20:02 00:25:43 44° 284° (WNW) 00:29:58 436.750
NANOSAT C BR1 07 Mar 00:20:21 00:23:41 23° 294° (WNW) 00:26:56 145.865
Oscar 19 07 Mar 00:21:59 00:24:44 15° 87° (E) 00:27:44 437.125/150
CUSAT 1 07 Mar 00:22:59 00:27:43 31° 285° (WNW) 00:31:23 437.405
BEESAT 3 07 Mar 00:25:02 00:29:12 70° 53° (NE) 00:33:16 437.485
ANTELSAT 07 Mar 00:36:25 00:37:37 11° 301° (WNW) 00:38:36 437.575/2403.000
TISAT 1 07 Mar 00:36:32 00:39:41 19° 269° (W) 00:42:42 437.305
BUGSAT 1 07 Mar 00:40:25 00:43:23 19° 296° (WNW) 00:46:11 437.445
SWISSCUBE 07 Mar 00:46:22 00:51:10 83° 258° (WSW) 00:56:00 437.505
YUBILEINY 07 Mar 00:48:44 00:54:44 20° 55° (NE) 01:01:05 435.215
SPROUT 07 Mar 00:50:46 00:52:59 13° 272° (W) 00:55:01 437.525
BEESAT 07 Mar 00:54:07 00:58:54 76° 257° (WSW) 01:03:44 436.000
RS-15 07 Mar 00:54:57 01:05:23 46° 326° (NW) 01:16:02 29.354- 29.394
BEESAT 2 07 Mar 00:55:58 01:00:08 69° 237° (WSW) 01:04:13 435.950
QB50P1 07 Mar 00:56:12 00:57:33 11° 301° (WNW) 00:58:42 145.935-145.965
AIST 2 07 Mar 01:19:46 01:24:05 82° 53° (NE) 01:28:18 435.215
STARS 07 Mar 01:21:57 01:25:45 29° 67° (ENE) 01:29:37 437.465
ITUPSAT 1 07 Mar 01:24:57 01:29:29 40° 263° (W) 01:34:01 437.325
KKS-1 07 Mar 01:26:04 01:30:21 47° 71° (ENE) 01:34:40 437.445
SO-50 07 Mar 01:40:47 01:45:14 43° 315° (NW) 01:49:51 436.795
Oscar 19 07 Mar 01:59:38 02:04:47 76° 287° (WNW) 02:09:55 437.125/150
BEESAT 3 07 Mar 02:04:37 02:06:48 14° 249° (WSW) 02:08:48 437.485
ITAMSAT 1 07 Mar 02:08:37 02:13:39 46° 98° (E) 02:18:40 435.822/435.867
Gurwin Techsat 1B 07 Mar 02:08:48 02:13:42 37° 96° (E) 02:18:37 435.225
AO-7 07 Mar 02:17:33 02:18:05 10° 79° (E) 02:19:24 29.400- 29.500
AUBIESAT-1 07 Mar 02:21:12 02:23:00 14° 56° (NE) 02:24:59 437.475
M-CUBED/EXP-1 PRIME 07 Mar 02:23:01 02:25:09 16° 58° (ENE) 02:27:28 437.505
SWISSCUBE 07 Mar 02:29:33 02:29:55 10° 276° (W) 02:29:57 437.505
PCSat 07 Mar 02:35:52 02:39:28 18° 33° (NNE) 02:43:09 145.827
YUBILEINY 07 Mar 02:44:23 02:53:18 81° 80° (E) 03:02:09 435.215
STARS 07 Mar 02:58:15 03:02:12 31° 264° (W) 03:06:07 437.465
AIST 2 07 Mar 03:00:20 03:02:06 12° 250° (WSW) 03:03:42 435.215
KKS-1 07 Mar 03:04:01 03:07:18 19° 269° (W) 03:10:28 437.445
RS-15 07 Mar 03:12:00 03:21:20 29° 359° (N) 03:30:58 29.354- 29.394
MOZHAYETS 4 07 Mar 03:12:10 03:16:13 32° 68° (ENE) 03:20:20
HORYU 2 07 Mar 03:19:35 03:23:52 44° 99° (E) 03:28:09 437.375
SO-50 07 Mar 03:24:49 03:27:06 13° 338° (NNW) 03:29:20 436.795
Oscar 19 07 Mar 03:41:13 03:43:23 12° 304° (NW) 03:45:19 437.125/150
ITAMSAT 1 07 Mar 03:48:35 03:52:57 27° 297° (WNW) 03:57:12 435.822/435.867
Gurwin Techsat 1B 07 Mar 03:48:53 03:53:39 34° 294° (WNW) 03:58:21 435.225
JAS-2 07 Mar 03:52:00 03:59:07 43° 95° (E) 04:06:32 435.910
AUBIESAT-1 07 Mar 03:54:15 03:57:31 48° 255° (WSW) 04:01:01 437.475
M-CUBED/EXP-1 PRIME 07 Mar 03:56:39 03:59:50 39° 256° (WSW) 04:03:13 437.505
AO-7 07 Mar 04:04:57 04:13:05 57° 102° (ESE) 04:21:14 29.400- 29.500
PRISM 07 Mar 04:08:40 04:09:30 11° 59° (ENE) 04:10:33 437.425
STRAND 1 07 Mar 04:16:11 04:17:37 11° 55° (NE) 04:19:19 437.568
PCSat 07 Mar 04:18:28 04:23:55 72° 56° (NE) 04:29:20 145.827
YUBILEINY 07 Mar 04:42:31 04:49:14 24° 280° (W) 04:55:37 435.215
MOZHAYETS 4 07 Mar 04:49:28 04:53:29 29° 266° (W) 04:57:28
HORYU 2 07 Mar 04:56:51 05:00:17 22° 296° (WNW) 05:03:37 437.375
CUBESAT XI-V 07 Mar 05:24:21 05:28:58 58° 73° (ENE) 05:33:38 437.345
RS-15 07 Mar 05:26:54 05:37:28 44° 32° (NNE) 05:48:35 29.354- 29.394
JAS-2 07 Mar 05:37:03 05:44:13 49° 293° (WNW) 05:51:39 435.910
PRISM 07 Mar 05:40:12 05:44:23 88° 68° (ENE) 05:48:36 437.425
STRAND 1 07 Mar 05:50:52 05:55:59 68° 73° (ENE) 06:01:09 437.568
AIST 1 07 Mar 05:53:24 05:57:07 28° 90° (E) 06:00:55
AO-7 07 Mar 05:58:09 06:05:41 39° 302° (WNW) 06:13:05 29.400- 29.500
PCSat 07 Mar 06:03:02 06:06:50 19° 253° (WSW) 06:10:26 145.827
Cubesat XI-IV 07 Mar 06:13:19 06:18:35 54° 100° (E) 06:23:50 437.490
ISS 07 Mar 06:15:55 06:16:35 11° 133° (SE) 06:17:22 145.825
CUTE-I 07 Mar 06:20:47 06:26:06 62° 101° (E) 06:31:24 437.470
SO-50 07 Mar 06:49:34 06:52:31 16° 27° (NNE) 06:55:35 436.795
GONETS M04 07 Mar 06:57:50 07:05:00 28° 62° (ENE) 07:12:24
CUBESAT XI-V 07 Mar 07:03:40 07:06:52 17° 271° (W) 07:09:54 437.345
JAS-2 07 Mar 07:24:51 07:27:49 12° 312° (NW) 07:30:25 435.910
AIST 1 07 Mar 07:30:54 07:34:45 29° 288° (WNW) 07:38:36
STRAND 1 07 Mar 07:32:22 07:35:47 17° 272° (W) 07:38:59 437.568
RS-15 07 Mar 07:39:37 07:51:02 78° 238° (WSW) 08:02:56 29.354- 29.394
HO-68 07 Mar 07:44:14 07:49:31 22° 89° (E) 07:55:02 435.675
ISS 07 Mar 07:49:19 07:52:32 68° 148° (SSE) 07:55:44 145.825
AO-7 07 Mar 07:53:55 07:56:17 11° 326° (NW) 07:58:18 29.400- 29.500
Cubesat XI-IV 07 Mar 07:54:05 07:58:23 24° 298° (WNW) 08:02:34 437.490
GOMX 1 07 Mar 08:00:14 08:03:17 19° 90° (E) 08:06:22 467.674
COMPASS 1 07 Mar 08:01:35 08:03:31 13° 88° (E) 08:05:40 437.405
CUTE-I 07 Mar 08:01:43 08:05:47 22° 299° (WNW) 08:09:42 437.470
O/OREOS (USA 219) 07 Mar 08:02:37 08:06:54 42° 108° (ESE) 08:11:17 437.305
DOVE 4 07 Mar 08:11:11 08:13:55 17° 90° (E) 08:16:45 437.250
BRITE-PL 07 Mar 08:20:36 08:24:55 47° 98° (E) 08:29:00 437.365/2234.400
ANTELSAT 07 Mar 08:24:39 08:26:41 14° 61° (ENE) 08:28:54 437.575/2403.000
Oscar 11 07 Mar 08:26:11 08:26:25 10° 85° (E) 08:26:55 145.826/435.025
SO-50 07 Mar 08:29:15 08:34:08 58° 49° (NE) 08:39:01 436.795
SEEDS 07 Mar 08:35:06 08:39:00 35° 96° (E) 08:42:56 437.485
QB50P1 07 Mar 08:40:51 08:42:03 11° 60° (ENE) 08:43:27 145.935-145.965
QB50P2 07 Mar 08:45:51 08:47:41 13° 61° (ENE) 08:49:41 145.880/145.840
CANX-2 07 Mar 08:46:22 08:50:36 61° 100° (E) 08:54:50 2200.000
GONETS M04 07 Mar 08:54:06 09:02:51 74° 265° (W) 09:11:35
DUCHIFAT 1 07 Mar 08:55:38 08:58:04 15° 62° (ENE) 09:00:39 145.980
DX 1 07 Mar 08:59:07 08:59:36 10° 86° (E) 09:00:24 434.975-435.025
CUTE 1.7 + AOD 2 07 Mar 09:04:11 09:08:28 85° 103° (ESE) 09:12:44 437.475
CUBEBUG 2 07 Mar 09:04:59 09:07:58 19° 91° (E) 09:11:04 437.445
CUSAT 1 07 Mar 09:17:01 09:17:44 11° 68° (ENE) 09:18:33 437.405
CINEMA 3 07 Mar 09:17:55 09:21:56 46° 98° (E) 09:25:58 145.822/145.860
POPSAT HIP 1 07 Mar 09:18:36 09:22:06 25° 67° (ENE) 09:25:40 437.405
FUNcube-1 07 Mar 09:19:09 09:22:02 19° 91° (E) 09:25:04 145.935
UNISAT 6 07 Mar 09:19:50 09:23:58 45° 71° (ENE) 09:28:05 437.425
UKube-1 07 Mar 09:20:08 09:22:55 17° 90° (E) 09:25:49 .
POLYITAN 1 07 Mar 09:20:38 09:24:13 27° 67° (ENE) 09:27:52 437.675
ZACube-1 07 Mar 09:22:11 09:25:16 20° 92° (E) 09:28:28 437.345
ISS 07 Mar 09:26:07 09:29:08 35° 348° (NNW) 09:32:09 145.825
AAUSAT CUBESAT 2 07 Mar 09:28:47 09:33:00 85° 284° (WNW) 09:37:13 437.432
HO-68 07 Mar 09:30:52 09:38:05 78° 289° (WNW) 09:45:16 435.675
COMPASS 1 07 Mar 09:35:32 09:39:43 63° 286° (WNW) 09:43:53 437.405
GOMX 1 07 Mar 09:37:39 09:41:44 40° 290° (WNW) 09:45:38 467.674
NANOSAT C BR1 07 Mar 09:39:08 09:43:07 40° 70° (ENE) 09:47:08 145.865
TIGRISAT 07 Mar 09:42:09 09:46:30 75° 75° (ENE) 09:50:47 435.000
O/OREOS (USA 219) 07 Mar 09:42:40 09:46:32 25° 307° (NW) 09:50:22 437.305
DOVE 4 07 Mar 09:48:01 09:52:04 45° 289° (WNW) 09:56:01 437.250
UWE-3 07 Mar 09:52:20 09:56:24 51° 99° (E) 10:00:30 435.000/436.395/437.385
RS-15 07 Mar 09:53:49 10:01:56 21° 259° (WSW) 10:09:36 29.354- 29.394
BUGSAT 1 07 Mar 09:56:31 10:00:35 46° 72° (ENE) 10:04:42 437.445
ANTELSAT 07 Mar 09:58:41 10:03:01 72° 258° (WSW) 10:07:19 437.575/2403.000
Oscar 11 07 Mar 09:58:57 10:03:18 85° 284° (WNW) 10:07:39 145.826/435.025
BRITE-PL 07 Mar 09:59:57 10:03:08 19° 297° (WNW) 10:06:05 437.365/2234.400
DELFI C3 07 Mar 10:05:48 10:09:55 86° 286° (WNW) 10:14:01 145.870
ESTCUBE 1 07 Mar 10:06:51 10:08:36 12° 86° (E) 10:10:35 437.505/2401.250
SO-50 07 Mar 10:10:28 10:14:23 23° 247° (WSW) 10:18:11 436.795
SEEDS 07 Mar 10:11:15 10:14:42 24° 293° (WNW) 10:18:05 437.485
QB50P1 07 Mar 10:13:03 10:17:21 89° 253° (WSW) 10:21:39 145.935-145.965
QB50P2 07 Mar 10:18:48 10:23:05 77° 257° (WSW) 10:27:22 145.880/145.840
HUMSAT D 07 Mar 10:20:03 10:23:59 43° 98° (E) 10:27:58 437.325/437.525
CANX-2 07 Mar 10:23:33 10:26:08 16° 297° (WNW) 10:28:36 2200.000
DUCHIFAT 1 07 Mar 10:29:16 10:33:31 61° 259° (W) 10:37:45 145.980
DX 1 07 Mar 10:32:11 10:36:36 84° 285° (WNW) 10:40:56 434.975-435.025
CUBEBUG 2 07 Mar 10:41:00 10:44:55 40° 289° (WNW) 10:48:50 437.445
CUTE 1.7 + AOD 2 07 Mar 10:42:16 10:43:49 12° 300° (WNW) 10:45:11 437.475
CUBEBUG 1 07 Mar 10:45:10 10:48:52 26° 94° (E) 10:52:35 437.445
GONETS M04 07 Mar 10:53:21 10:58:18 16° 285° (WNW) 11:02:45
POPSAT HIP 1 07 Mar 10:53:59 10:57:54 34° 264° (W) 11:01:47 437.405
FUNcube-1 07 Mar 10:54:42 10:58:39 42° 289° (WNW) 11:02:36 145.935
UKube-1 07 Mar 10:55:12 10:59:27 51° 288° (WNW) 11:03:38 .
CINEMA 3 07 Mar 10:56:00 10:58:54 18° 296° (WNW) 11:01:40 145.822/145.860
POLYITAN 1 07 Mar 10:56:14 11:00:06 31° 264° (W) 11:03:55 437.675
50 SAT 07 Mar 10:57:32 11:01:31 81° 103° (ESE) 11:05:30 437.505
UNISAT 6 07 Mar 10:57:53 11:01:03 19° 269° (W) 11:04:04 437.425
ZACube-1 07 Mar 10:57:57 11:01:51 39° 290° (WNW) 11:05:44 437.345
CUSAT 1 07 Mar 10:58:37 11:00:38 19° 265° (W) 11:02:42 437.405
AISAT 07 Mar 10:59:17 11:03:45 81° 103° (ESE) 11:08:10 437.250
DANDE 07 Mar 10:59:27 11:01:44 26° 264° (W) 11:04:03 436.750
ISS 07 Mar 11:03:09 11:06:05 31° 8° (N) 11:09:02 145.825
VELOX 1 07 Mar 11:06:17 11:10:47 88° 273° (W) 11:15:12 145.980
AAUSAT CUBESAT 2 07 Mar 11:07:37 11:08:01 10° 301° (WNW) 11:08:13 437.432
NANOSAT C BR1 07 Mar 11:15:52 11:19:10 21° 268° (W) 11:22:23 145.865
HO-68 07 Mar 11:20:02 11:24:50 19° 309° (NW) 11:29:24 435.675
TIGRISAT 07 Mar 11:22:19 11:23:52 11° 273° (W) 11:25:10 435.000
UWE-3 07 Mar 11:29:53 11:32:39 17° 296° (WNW) 11:35:17 435.000/436.395/437.385
BUGSAT 1 07 Mar 11:33:18 11:36:21 18° 269° (W) 11:39:18 437.445
Oscar 11 07 Mar 11:37:47 11:38:51 11° 301° (WNW) 11:39:42 145.826/435.025
Oscar 19 07 Mar 11:40:48 11:45:08 29° 65° (ENE) 11:49:32 437.125/150
ESTCUBE 1 07 Mar 11:41:33 11:46:09 77° 285° (WNW) 11:50:40 437.505/2401.250
ITAMSAT 1 07 Mar 11:52:40 11:55:27 15° 57° (ENE) 11:58:25 435.822/435.867
Gurwin Techsat 1B 07 Mar 11:56:23 11:58:26 13° 55° (NE) 12:00:44 435.225
HUMSAT D 07 Mar 11:56:34 11:59:32 19° 295° (WNW) 12:02:24 437.325/437.525
DX 1 07 Mar 12:10:58 12:12:11 11° 302° (WNW) 12:13:13 434.975-435.025
TISAT 1 07 Mar 12:17:22 12:21:32 56° 100° (E) 12:25:40 437.305
CUBEBUG 1 07 Mar 12:21:19 12:25:18 33° 292° (WNW) 12:29:13 437.445
SPROUT 07 Mar 12:32:18 12:36:38 88° 285° (WNW) 12:40:55 437.525
50 SAT 07 Mar 12:34:57 12:35:59 11° 299° (WNW) 12:36:49 437.505
AISAT 07 Mar 12:37:39 12:39:49 13° 300° (WNW) 12:41:46 437.250
ISS 07 Mar 12:39:34 12:42:49 87° 33° (NNE) 12:46:03 145.825
SWISSCUBE 07 Mar 12:45:00 12:48:36 21° 91° (E) 12:52:19 437.505
VELOX 1 07 Mar 12:45:04 12:46:43 12° 302° (WNW) 12:48:09 145.980
BEESAT 07 Mar 12:52:30 12:56:17 23° 92° (E) 13:00:08 436.000
AO-7 07 Mar 13:16:34 13:22:51 25° 50° (NE) 13:29:20 29.400- 29.500
Oscar 19 07 Mar 13:19:31 13:24:21 41° 262° (W) 13:29:12 437.125/150
ESTCUBE 1 07 Mar 13:21:15 13:22:18 11° 303° (WNW) 13:23:08 437.505/2401.250
ITUPSAT 1 07 Mar 13:22:46 13:27:22 43° 98° (E) 13:31:58 437.325
ITAMSAT 1 07 Mar 13:29:02 13:34:16 89° 96° (E) 13:39:34 435.822/435.867
Gurwin Techsat 1B 07 Mar 13:32:18 13:37:35 74° 74° (ENE) 13:42:56 435.225
TISAT 1 07 Mar 13:54:18 13:56:58 16° 298° (WNW) 13:59:29 437.305
YUBILEINY 07 Mar 13:55:35 14:00:57 19° 77° (ENE) 14:06:47 435.215
JAS-2 07 Mar 14:08:46 14:13:08 22° 56° (ENE) 14:18:02 435.910
SPROUT 07 Mar 14:10:53 14:12:06 11° 301° (WNW) 14:13:07 437.525
ISS 07 Mar 14:16:50 14:18:53 16° 224° (SW) 14:20:52 145.825
HORYU 2 07 Mar 14:20:21 14:24:40 57° 72° (ENE) 14:29:03 437.375
SWISSCUBE 07 Mar 14:22:07 14:26:47 49° 290° (WNW) 14:31:24 437.505
BEESAT 07 Mar 14:29:47 14:34:23 45° 290° (WNW) 14:38:56 436.000
STARS 07 Mar 14:45:07 14:49:14 39° 97° (E) 14:53:21 437.465
KKS-1 07 Mar 14:51:03 14:55:30 69° 101° (ESE) 14:59:55 437.445
BEESAT 2 07 Mar 14:55:15 14:56:44 12° 110° (ESE) 14:58:25 435.950
ITUPSAT 1 07 Mar 15:01:07 15:05:05 25° 296° (WNW) 15:08:58 437.325
AO-7 07 Mar 15:06:24 15:14:46 90° 71° (ENE) 15:23:09 29.400- 29.500
ITAMSAT 1 07 Mar 15:12:12 15:14:38 13° 274° (W) 15:16:48 435.822/435.867
Gurwin Techsat 1B 07 Mar 15:14:51 15:18:15 16° 273° (W) 15:21:26 435.225
M-CUBED/EXP-1 PRIME 07 Mar 15:36:53 15:38:14 11° 93° (E) 15:39:53 437.505
YUBILEINY 07 Mar 15:47:50 15:56:35 85° 98° (E) 16:05:28 435.215
JAS-2 07 Mar 15:51:47 15:57:30 74° 258° (WSW) 16:04:04 435.910
BEESAT 3 07 Mar 15:58:35 16:02:36 58° 122° (ESE) 16:06:42 437.485
HORYU 2 07 Mar 15:58:59 16:01:46 16° 271° (W) 16:04:25 437.375
AIST 1 07 Mar 16:00:03 16:00:43 10° 61° (ENE) 16:01:37
Cubesat XI-IV 07 Mar 16:00:12 16:03:46 19° 59° (ENE) 16:07:29 437.490
VERMONT LUNAR 07 Mar 16:01:12 16:04:02 23° 165° (SSE) 16:06:54 437.305
CUTE-I 07 Mar 16:07:11 16:11:02 21° 60° (ENE) 16:15:02 437.470
STARS 07 Mar 16:22:01 16:25:32 23° 295° (WNW) 16:28:57 437.465
KKS-1 07 Mar 16:29:06 16:31:41 15° 299° (WNW) 16:34:06 437.445
BEESAT 2 07 Mar 16:30:13 16:34:21 81° 307° (NW) 16:38:34 435.950
O/OREOS (USA 219) 07 Mar 16:31:24 16:34:35 18° 48° (NE) 16:37:49 437.305
MOZHAYETS 4 07 Mar 16:41:16 16:45:50 55° 99° (E) 16:50:25
PHONESAT 2.4 07 Mar 16:44:18 16:47:18 24° 165° (SSE) 16:50:20 2401.200-2431.200
AIST 2 07 Mar 16:58:10 17:02:25 77° 124° (SE) 17:06:45 435.215
AO-7 07 Mar 17:02:40 17:08:48 21° 272° (W) 17:14:35 29.400- 29.500
AUBIESAT-1 07 Mar 17:06:31 17:10:55 80° 110° (ESE) 17:15:35 437.475
M-CUBED/EXP-1 PRIME 07 Mar 17:09:18 17:13:42 88° 290° (WNW) 17:18:22 437.505
CUBESAT XI-V 07 Mar 17:20:37 17:22:27 12° 85° (E) 17:24:32 437.345
PRISM 07 Mar 17:23:06 17:23:55 11° 86° (E) 17:24:58 437.425
AIST 1 07 Mar 17:34:45 17:39:13 90° 264° (W) 17:43:35
BEESAT 3 07 Mar 17:37:46 17:41:03 22° 322° (NW) 17:44:17 437.485
Cubesat XI-IV 07 Mar 17:37:58 17:43:20 75° 256° (WSW) 17:48:46 437.490
VERMONT LUNAR 07 Mar 17:38:18 17:41:27 32° 182° (S) 17:44:38 437.305
JAS-2 07 Mar 17:42:20 17:44:14 11° 282° (WNW) 17:45:46 435.910
CUTE-I 07 Mar 17:45:20 17:50:41 66° 258° (WSW) 17:56:04 437.470
YUBILEINY 07 Mar 17:47:47 17:54:44 24° 301° (WNW) 18:01:29 435.215
BRITE-PL 07 Mar 17:58:07 18:00:21 13° 59° (ENE) 18:02:46 437.365/2234.400
STRAND 1 07 Mar 17:59:52 18:03:23 19° 89° (E) 18:07:04 437.568
O/OREOS (USA 219) 07 Mar 18:09:56 18:14:31 65° 248° (WSW) 18:19:02 437.305
BEESAT 2 07 Mar 18:10:38 18:13:15 16° 328° (NNW) 18:15:46 435.950
HO-68 07 Mar 18:16:15 18:21:38 24° 55° (NE) 18:27:12 435.675
MOZHAYETS 4 07 Mar 18:19:22 18:22:43 19° 297° (WNW) 18:25:57
PHONESAT 2.4 07 Mar 18:21:58 18:25:18 34° 181° (S) 18:28:37 2401.200-2431.200
AIST 2 07 Mar 18:38:24 18:41:34 19° 325° (NW) 18:44:41 435.215
AUBIESAT-1 07 Mar 18:42:48 18:45:20 15° 303° (WNW) 18:47:49 437.475
M-CUBED/EXP-1 PRIME 07 Mar 18:46:03 18:48:08 13° 305° (NW) 18:50:05 437.505
AAUSAT CUBESAT 2 07 Mar 18:50:30 18:51:12 10° 60° (ENE) 18:52:05 437.432
PRISM 07 Mar 18:55:48 19:00:04 79° 284° (WNW) 19:04:17 437.425
CUBESAT XI-V 07 Mar 18:55:51 19:00:36 80° 286° (WNW) 19:05:17 437.345
COMPASS 1 07 Mar 18:56:06 18:58:09 14° 62° (ENE) 19:00:22 437.405
